User: anonymous   Login
Location: Ch�tillon
(48.8024°N, 2.2935°E)
Time: 15:14:38
(UTC+00:00)
Language:

Cosmos 1626 Rocket - Orbit

View from above orbital plane
View from above orbital plane
View from above satellite
View from above satellite

Ground track
Ground track

The orbit data is extracted from the following two-line orbital elements,

1 15495U 85009B   22023.77327435  .00000131  00000-0  12785-4 0  9995
2 15495  82.5223  52.0783 0020119 177.3544 182.7782 14.83953362978178
Epoch (UTC): 23 January 2022 18:33:30
Eccentricity: 0.0020119
inclination: 82.5223°
perigee height: 603 km
apogee height: 631 km
right ascension of ascending node: 52.0783°
argument of perigee: 177.3544°
revolutions per day: 14.83953362
mean anomaly at epoch: 182.7782°
orbit number at epoch: 97817

The dashed part of the orbit path shows where the satellite is in the earth's shadow,  

DLR